Overview Statistics Trail Chart Weather Telemetry Raw packets
 

This is the latest recevied weather packets stored in our database for station/object N1YZ. If no packets are shown the sender has not sent any weather packets the latest 10 day(s).

<< 17 18 19 20 21 22 23 >>
Time Temp. Humidity Pressure Rain* Wind** Luminosity Snow
1788534573 30.56° C 71% 1036.5 hPa 0 mm - 74 W/m² -
1788534268 30.56° C 73% 1036.5 hPa 0 mm - 119 W/m² -
1788533966 30.56° C 74% 1036.7 hPa 0 mm - 50 W/m² -
1788533663 30.56° C 73% 1036.7 hPa 0 mm - 69 W/m² -
1788533358 31.11° C 71% 1036.3 hPa 0 mm - 119 W/m² -
1788533054 31.11° C 69% 1036.6 hPa 0 mm - 100 W/m² -
1788532749 31.67° C 70% 1036.4 hPa 0 mm - 92 W/m² -
1788532446 31.11° C 70% 1036.4 hPa 0 mm - 139 W/m² -
1788532142 30.56° C 73% 1036.3 hPa 0 mm - 299 W/m² -
1788531837 30° C 79% 1036.4 hPa 0 mm - 287 W/m² -
1788531531 29.44° C 79% 1036.3 hPa 0 mm - 144 W/m² -
1788531227 28.89° C 80% 1036.5 hPa 0 mm - 155 W/m² -
1788530923 28.33° C 80% 1036.6 hPa 0 mm - 86 W/m² -
1788530644 27.78° C 83% 1036.5 hPa 0 mm - 82 W/m² -
1788530317 27.78° C 83% 1036.5 hPa 0 mm - 71 W/m² -
1788530012 27.78° C 83% 1036.6 hPa 0 mm - 52 W/m² -
1788529708 27.78° C 83% 1036.6 hPa 0 mm - 34 W/m² -
1788529408 27.78° C 83% 1036.5 hPa 0 mm - 37 W/m² -
1788529102 27.22° C 85% 1036.4 hPa 0 mm - 117 W/m² -
1788528798 27.22° C 86% 1036.6 hPa 0 mm - 69 W/m² -
1788528498 26.67° C 86% 1036.3 hPa 0 mm - 30 W/m² -
1788528193 26.67° C 88% 1036.3 hPa 0 mm - 51 W/m² -
1788527892 26.11° C 89% 1036.3 hPa 0 mm - 34 W/m² -
1788527588 26.11° C 91% 1036.2 hPa 0 mm - 32 W/m² -
1788527288 25.56° C 92% 1036.5 hPa 0 mm - 29 W/m² -

* Rain latest hour (hover to see other rain measurements)
** Current wind speed in m/s (hover to see current wind gust speed)